sat.trackr.live / text

‹ back to catalog

STARLINK-34820

NORAD 65041 · 2025-161AC

PAYLOAD ACTIVE UNKNOWN

§ Identity

Operator
Country
US
Launch date
2025-07-30
Launch site
AFWTR
Launch vehicle
Mass (kg)
RCS (m²)

Purposes: comms

External: N2YO · Heavens-Above · Gunter

§ Orbital elements

Epoch: 2026-05-25T04:00:03.998880Z

Period
93.85 min
Inclination
53.1601°
Eccentricity
0.0000590
Mean motion
15.34384097 rev/d
Perigee alt
462.3 km
Apogee alt
463.2 km
Semi-major
6,840.9 km
B*
3.0029e-4
RAAN
298.5613°
Arg perigee
98.4293°
Mean anomaly
296.0816°
Rev number
585

§ Raw data

STARLINK-348201 65041U 25161AC  26145.16671295  .00009778  00000+0  30029-3 0  99932 65041  53.1601 298.5613 0000590  98.4293 296.0816 15.34384097  5851

JSON: /api/v1/satellites/65041 · /tle

For live sub-satellite position, see the globe view (requires WebGL).

§ Visibility from observer

Set your observer location to see the next 7 days of passes ≥ 10°. The values pass through the URL so the page stays shareable.

No JS? Fill the form by hand. The geolocation button needs JavaScript.